Location: Andershausen
(51.8462°N, 9.8595°E)
Time: 03:03:07
(UTC+00:00)

CZ-4C R/B - Pass Details

Date: 18 November 2025
Orbit: 487 x 1493 km, 63.4° (Epoch: 15 December)

Event Time Altitude Azimuth Distance (km) Brightness Sun altitude
Rises 18:45:27 0° 297° (WNW) 3,219 6.2 -30.4°
Reaches altitude 10° 18:47:56 10° 309° (NW) 2,439 5.3 -30.8°
Enters shadow 18:52:28 29° 2° (N) 1,686 3.7 -31.5°
